Regional Weather Roundup
Issued by NWS

Home | Current Version | Previous Version | Text Only | Print | Product List | Glossary Off
Versions: 1 2 3 4 5 6 7 8 9 10 11 12 13 14 15 16 17 18 19 20 21 22 23 24 25 26 27 28 29 30 31 32 33 34 35 36 37 38 39 40 41 42 43 44 45 46 47 48 49 50

000
ASUS45 KBOU 291407
RWRCO

WEATHER ROUNDUP FOR COLORADO
NATIONAL WEATHER SERVICE DENVER/BOULDER CO
800 AM MDT MON SEP 29 2014

NOTE: "FAIR" INDICATES FEW OR NO CLOUDS BELOW 12000 FEET WITH NO
SIGNIFICANT WEATHER AND/OR OBSTRUCTIONS TO VISIBILITY.

COZ001>005-013-030-031-291500-
...NORTHWEST COLORADO...

CITY           SKY/WX    TMP DP  RH WIND       PRES   REMARKS
CRAIG          CLEAR     46  42  86 CALM      30.07R
HAYDEN         CLEAR     43  39  87 E9        30.08F
MEEKER         CLEAR     44  40  85 CALM      30.07S
MOUNT WERNER   NOT AVBL
STEAMBOAT SPGS NOT AVBL
WALDEN         MOSUNNY   39  36  87 SE6       30.14S
$$

COZ006>008-011-291500-
...WEST CENTRAL VALLEYS...

CITY           SKY/WX    TMP DP  RH WIND       PRES   REMARKS
GRAND JUNCTION MOCLDY    49  48  97 SE6       30.02S
MONTROSE       MOCLDY    47  45  93 CALM      30.08S
EAGLE          CLOUDY    46  46 100 CALM      30.14R
RIFLE          MOCLDY    45  43  93 CALM      30.06S
DELTA          FLURRIES  49  48  96 N3        30.06S
NUCLA          PTCLDY    46  45  93 E8        30.11S
$$

COZ017>023-064>068-291500-
...SOUTHWEST COLORADO...

CITY           SKY/WX    TMP DP  RH WIND       PRES   REMARKS
DURANGO        CLOUDY    50  49  96 NE5       30.14R
CORTEZ         PTCLDY    49  47  93 VRB3      30.08S
PAGOSA SPRINGS NOT AVBL
TELLURIDE      CLOUDY   N/A N/A N/A CALM      30.19F
WOLF CREEK PAS SNOW      32  32 100 S10G20    30.33F VSB<1/4 WCI  24
$$

COZ009-010-012-014-032>034-037-058>063-291500-
...CENTRAL COLORADO...

CITY           SKY/WX    TMP DP  RH WIND       PRES   REMARKS
ASPEN          MOSUNNY   40  37  89 S3        30.13F
BUENA VISTA    PTSUNNY   46  43  89 CALM      30.17S
COPPER MTN     MOSUNNY   41  32  70 S16       30.32S
BERTHOUD PASS  FAIR      32  30  93 CALM      30.36S
COTTONWOOD PAS MOSUNNY   45  39  81 CALM      30.25S
GUNNISON       PTSUNNY   43  37  81 CALM      30.18R
KREMMLING      MOSUNNY   41  37  87 CALM      30.16S
LEADVILLE      NOT AVBL
SALIDA         PTSUNNY   51  48  90 CALM      30.22S
SUNLIGHT       MOCLDY    37  36  93 CALM      30.27R
WILKERSON PASS NOT AVBL
$$

COZ069>075-291500-
...SAN LUIS VALLEY/SANGRE DE CRISTO MOUNTAINS...

CITY           SKY/WX    TMP DP  RH WIND       PRES   REMARKS
ALAMOSA        CLOUDY    49  48  97 NW3       30.17R FOG
LA VETA PASS   NOT AVBL
SAGUACHE       MOSUNNY   46  46 100 CALM      30.19S
$$

COZ035-036-038>040-291500-
...NORTHERN COLORADO FRONT RANGE...

CITY           SKY/WX    TMP DP  RH WIND       PRES   REMARKS
DENVER INTL AP PTSUNNY   54  50  86 CALM      30.06R
DMNS CITY PARK   N/A     55  51  86 SE1       30.06S
AURORA         PTSUNNY   53  52  99 W3        30.08S
FRONT RANGE AP NOT AVBL
ERIE MUNI ARPT NOT AVBL
BOULDER MUN AP PTSUNNY   54  52  94 CALM      30.06S
CENTENNIAL     CLOUDY    52  50  93 CALM      30.08R
BROOMFIELD     PTSUNNY   55  52  88 CALM      30.07R
FORT COLLINS   MOSUNNY   54  52  94 SE7       30.07R
LONGMONT       NOT AVBL
$$

COZ041-046-047-076>085-087-088-291500-
...PIKES PEAK/PALMER DIVIDE AND SOUTHERN FOOTHILLS...

CITY           SKY/WX    TMP DP  RH WIND       PRES   REMARKS
COLO. SPRINGS  PTSUNNY   58  49  72 CALM      30.09R
A. F. ACADEMY  MOSUNNY   54  48  80 N6        30.10R
ELLICOTT       NOT AVBL
FALCON         PTSUNNY   54  48  80 N8        30.12S
FORT CARSON    PTSUNNY   57  50  77 NW6       30.06R
LIMON          PTSUNNY   53  51  93 NW8       30.07R
MONUMENT HILL  FOG       46  46 100 CALM      30.12R VSB 1/2
TRINIDAD       SUNNY     62  51  67 NW5       30.07R
$$

COZ042>045-048>051-090-091-291500-
...NORTHEAST COLORADO...

CITY           SKY/WX    TMP DP  RH WIND       PRES   REMARKS
GREELEY ARPT   MOSUNNY   54  45  71 CALM      30.05R
AKRON          CLOUDY    54  53  97 SW12      30.02R
BURLINGTON     SUNNY     60  53  77 S14       30.02R
WRAY           PTSUNNY   58  53  83 SE5       30.02R
STERLING       NOT AVBL
HOLYOKE        NOT AVBL
FORT MORGAN    PTSUNNY   54  51  90 NE12      30.02S
$$

COZ086-089-092>099-291500-
...SOUTHEAST COLORADO...

CITY           SKY/WX    TMP DP  RH WIND       PRES   REMARKS
PUEBLO         MOSUNNY   59  51  75 N6        30.01R
LA JUNTA       MOSUNNY   66  53  63 S8        29.98S
LAMAR          MOSUNNY   66  55  67 S14       29.99R
SPRINGFIELD      N/A     61  55  81 S24G31    30.05S
$$


USA.gov is the U.S. government's official web portal to all federal, state and local government web resources and services.